Location: *
(49.8044°N, 4.0558°E)
Time: 02:15:41
(UTC+00:00)

CZ-2C R/B - Pass Details

Date: 09 April 2020
Orbit: 785 x 870 km, 98.3° (Epoch: 03 June)

Event Time Altitude Azimuth Distance (km) Brightness Sun altitude
Rises 19:16:09 0° 22° (NNE) 3,290 5.8 -8.1°
Reaches altitude 10° 19:18:44 10° 32° (NNE) 2,357 4.9 -8.5°
Maximum altitude 19:23:19 31° 94° (E) 1,370 3.3 -9.2°
Drops below altitude 10° 19:27:53 10° 156° (SSE) 2,360 4.6 -9.8°
Sets 19:30:28 0° 167° (SSE) 3,295 5.4 -10.2°
